EXS65NA EGBB-LDDU

Flight info

Callsign EXS65NA
Flight time N/A
Altitude 37000
Route COWLY Q70 BIG L15 MOTOX DCT RUCAC DCT LESDO DCT ETINO DCT BEGAR DCT TRA DCT GAMSA N871 MADEB M738 TIRUL DCT DIRAB DCT MONFA DCT SPL L607 SIPAL
Aircraft B738/M-SDE2E3FGHIRWXY/LB1

Departure

Time 2026-05-07 14:20
Airport Birmingham Airport (EGBB)

Arrival

Time N/A
Airport Dubrovnik Ruđer Bošković Airport (LDDU)
Time Latitude Longitude Altitude Speed Heading
2026-05-07 13:42 52.45015 -1.73377 321 ft 0 kts 326°
2026-05-07 14:09 52.45007 -1.73368 322 ft 3 kts 326°
2026-05-07 14:09 52.44990 -1.73346 321 ft 4 kts 300°
2026-05-07 14:10 52.44986 -1.73308 318 ft 4 kts 248°
2026-05-07 14:10 52.44995 -1.73282 320 ft 3 kts 236°
2026-05-07 14:10 52.44981 -1.73315 318 ft 2 kts 236°
2026-05-07 14:10 52.44980 -1.73316 321 ft 0 kts 236°
2026-05-07 14:13 52.44978 -1.73321 322 ft 1 kts 236°
2026-05-07 14:13 52.44967 -1.73348 321 ft 4 kts 235°
2026-05-07 14:13 52.44945 -1.73399 322 ft 7 kts 235°
2026-05-07 14:13 52.44913 -1.73473 321 ft 9 kts 234°
2026-05-07 14:14 52.44887 -1.73577 322 ft 11 kts 239°
2026-05-07 14:14 52.44869 -1.73687 321 ft 12 kts 297°
2026-05-07 14:14 52.44937 -1.73778 322 ft 14 kts 326°
2026-05-07 14:14 52.45021 -1.73871 322 ft 16 kts 326°
2026-05-07 14:15 52.45118 -1.73971 322 ft 17 kts 326°
2026-05-07 14:15 52.45217 -1.74090 322 ft 18 kts 324°
2026-05-07 14:15 52.45318 -1.74195 322 ft 17 kts 324°
2026-05-07 14:15 52.45399 -1.74326 322 ft 16 kts 298°
2026-05-07 14:16 52.45449 -1.74488 321 ft 16 kts 296°
2026-05-07 14:16 52.45516 -1.74620 322 ft 15 kts 323°
2026-05-07 14:16 52.45615 -1.74724 317 ft 20 kts 325°
2026-05-07 14:16 52.45749 -1.74877 309 ft 26 kts 324°
2026-05-07 14:17 52.45903 -1.75049 308 ft 26 kts 326°
2026-05-07 14:17 52.46051 -1.75213 305 ft 25 kts 325°
2026-05-07 14:17 52.46188 -1.75366 302 ft 23 kts 326°
2026-05-07 14:17 52.46317 -1.75510 301 ft 22 kts 326°
2026-05-07 14:18 52.46444 -1.75652 304 ft 22 kts 326°
2026-05-07 14:18 52.46567 -1.75791 306 ft 21 kts 324°
2026-05-07 14:18 52.46622 -1.75943 307 ft 16 kts 242°
2026-05-07 14:18 52.46567 -1.76078 307 ft 8 kts 234°
2026-05-07 14:19 52.46526 -1.76068 307 ft 7 kts 146°
2026-05-07 14:19 52.46380 -1.75906 311 ft 59 kts 146°
2026-05-07 14:19 52.45838 -1.75305 319 ft 126 kts 145°
2026-05-07 14:19 52.44992 -1.74366 581 ft 157 kts 146°
2026-05-07 14:20 52.44092 -1.73342 1335 ft 158 kts 144°
2026-05-07 14:20 52.43181 -1.72291 1898 ft 167 kts 144°
2026-05-07 14:20 52.42170 -1.71127 2213 ft 189 kts 145°
2026-05-07 14:20 52.40974 -1.70030 2526 ft 204 kts 161°
2026-05-07 14:21 52.39563 -1.69467 2869 ft 215 kts 165°
2026-05-07 14:21 52.38098 -1.68860 3364 ft 218 kts 162°
2026-05-07 14:21 52.36761 -1.67806 4088 ft 211 kts 148°
2026-05-07 14:21 52.35495 -1.66496 4509 ft 219 kts 152°
2026-05-07 14:22 52.34126 -1.65263 4728 ft 236 kts 151°
2026-05-07 14:22 52.32667 -1.63826 4886 ft 254 kts 150°
2026-05-07 14:22 52.31134 -1.62269 5159 ft 263 kts 149°
2026-05-07 14:22 52.29574 -1.60667 5591 ft 266 kts 149°
2026-05-07 14:23 52.28005 -1.59053 5969 ft 266 kts 149°
2026-05-07 14:23 52.26434 -1.57431 5986 ft 268 kts 148°
2026-05-07 14:23 52.24831 -1.55870 5986 ft 268 kts 154°
2026-05-07 14:23 52.23159 -1.54544 5998 ft 267 kts 156°
2026-05-07 14:24 52.21476 -1.53249 6007 ft 268 kts 155°
2026-05-07 14:24 52.19794 -1.51941 6006 ft 269 kts 155°
2026-05-07 14:24 52.18107 -1.50622 5991 ft 269 kts 155°
2026-05-07 14:24 52.16425 -1.49293 6009 ft 269 kts 155°
2026-05-07 14:25 52.14741 -1.47961 6007 ft 269 kts 155°
2026-05-07 14:25 52.13057 -1.46631 5989 ft 270 kts 155°
2026-05-07 14:25 52.11360 -1.45291 5991 ft 271 kts 155°
2026-05-07 14:25 52.09662 -1.43950 6004 ft 272 kts 154°
2026-05-07 14:26 52.07960 -1.42609 5995 ft 273 kts 155°
2026-05-07 14:26 52.06250 -1.41261 6006 ft 273 kts 155°
2026-05-07 14:26 52.04537 -1.39912 6012 ft 275 kts 155°
2026-05-07 14:26 52.02805 -1.38548 5986 ft 277 kts 155°
2026-05-07 14:27 52.01096 -1.37204 5974 ft 272 kts 155°
2026-05-07 14:27 51.99434 -1.35898 5940 ft 256 kts 155°
2026-05-07 14:27 51.97889 -1.34686 5935 ft 238 kts 156°
2026-05-07 14:27 51.96433 -1.33544 5957 ft 229 kts 156°
2026-05-07 14:28 51.94999 -1.32422 5969 ft 230 kts 156°
2026-05-07 14:28 51.93574 -1.31309 5979 ft 231 kts 156°
2026-05-07 14:28 51.92122 -1.30175 5985 ft 232 kts 156°
2026-05-07 14:28 51.90667 -1.29040 5988 ft 233 kts 156°
2026-05-07 14:29 51.89205 -1.27900 5977 ft 233 kts 156°
2026-05-07 14:29 51.87743 -1.26759 5965 ft 233 kts 156°
2026-05-07 14:29 51.86287 -1.25623 5966 ft 232 kts 156°
2026-05-07 14:29 51.84836 -1.24492 5968 ft 231 kts 156°
2026-05-07 14:30 51.83390 -1.23366 5969 ft 230 kts 156°
2026-05-07 14:30 51.81951 -1.22246 5975 ft 229 kts 156°
2026-05-07 14:30 51.81464 -1.21867 5971 ft 229 kts 156°